Hourly Data Report for May 20, 2022

SHEARWATER RCS
NOVA SCOTIA
Current Station Operator: ECCC - MSC

44°37'47.000" N
63°30'48.000" W
24.00 m
8205092
71264
AAW

Download Data

Hourly Data (May 2022)
Hourly Data Report for May 20, 2022
TIME
LST
Temp Definition
°C
Dew Point Definition
°C
Rel Hum Definition
%
Precip. Amount Definition
mm

Wind Dir Definition
10's deg

Wind Spd Definition
km/h
Visibility Definition
km
Stn Press Definition
kPa
Hmdx Definition


Wind Chill Definition


Weather Definition


00:00 8.0 4.8 80 0.0 5 6   100.87     LegendNANA
01:00 8.2 5.5 83 0.0 3 11   100.89     LegendNANA
02:00 8.0 5.7 86 0.0 6 8   100.91     LegendNANA
03:00 7.6 5.8 88 0.0 4 13   100.91     LegendNANA
04:00 7.6 5.6 87 0.0 4 10   100.92     LegendNANA
05:00 7.9 5.7 86 0.0 4 10   100.97     LegendNANA
06:00 8.3 5.6 83 0.0 5 10   101.04     LegendNANA
07:00 9.0 4.9 75 0.0 4 9   101.16     LegendNANA
08:00 11.1 4.8 65 0.0 6 7   101.20     LegendNANA
09:00 11.8 5.6 66 0.0 16 8   101.23     LegendNANA
10:00 11.3 6.1 70 0.0 15 15   101.32     LegendNANA
11:00 11.1 5.0 66 0.0 13 17   101.38     LegendNANA
12:00 12.2 6.5 68 0.0 14 17   101.44     LegendNANA
13:00 12.1 5.4 63 0.0 14 18   101.54     LegendNANA
14:00 11.9 5.4 64 0.0 13 19   101.54     LegendNANA
15:00 11.5 5.7 67 0.0 14 22   101.55     LegendNANA
16:00 12.8 6.0 63 0.0 14 20   101.58     LegendNANA
17:00 12.7 5.7 62 0.0 14 19   101.64     LegendNANA
18:00 11.6 6.0 68 0.0 15 16   101.75     LegendNANA
19:00 10.1 6.0 76 0.0 14 13   101.78     LegendNANA
20:00 8.7 6.3 85 0.0 14 10   101.82     LegendNANA
21:00 7.7 6.1 90 0.0 15 8   101.92     LegendNANA
22:00 7.6 5.9 88 0.0 17 9   101.97     LegendNANA
23:00 7.9 5.4 84 0.0 18 9   102.02     LegendNANA

Notes on Data Quality.

Legend

  • E = Estimated
  • M = Missing
  • NA = Not Available*
  • [empty] = Indicates an unobserved value
Date modified: